SCP
0 0 0 0 0 0 0 0 0 0 0 0 0 0 0 0 0 1 1 1 1 1 1 1 1 2 2 3 3 2 2 2 2 1 1 1 1 1 1 1 1 0 0 0
0 0 0 0 0 0 0 0 0 0 0 0 0 0 0 0 0 0 1 1 1 1 1 1 1 2 2 3 3 2 2 2 2 1 1 1 1 1 1 1 1 1 0 0
0 0 0 0 0 0 0 0 0 0 0 0 0 0 0 0 0 0 1 1 1 1 1 1 1 1 2 2 2 2 2 2 2 1 1 1 1 1 1 1 1 1 0 0
0 0 0 0 0 0 0 0 0 0 0 0 0 0 0 0 0 1 1 1 1 1 1 1 1 1 2 2 2 2 2 2 2 2 1 1 1 1 1 1 1 1 1 0
0 0 0 0 0 0 0 0 0 0 0 0 0 0 0 0 1 1 1 1 1 1 1 1 1 1 1 2 2 2 2 2 2 2 2 1 1 1 1 1 1 1 1 1
0 0 0 0 0 0 0 0 0 0 0 0 0 0 0 0 1 1 1 1 1 1 1 1 1 1 1 2 2 2 2 2 2 2 2 1 1 1 1 1 1 1 1 1
0 0 0 0 0 0 0 0 0 0 0 0 0 0 0 0 1 1 1 1 1 1 1 1 1 1 1 2 2 2 2 2 2 2 2 1 1 1 1 1 1 1 1 1
0 0 0 0 0 0 0 0 0 0 0 0 0 0 0 1 1 1 1 1 1 1 1 1 1 1 1 1 2 2 2 2 2 2 1 1 1 1 1 1 1 1 1 1
0 0 0 0 0 0 0 0 0 0 0 0 0 0 0 1 1 1 1 1 1 1 1 1 1 1 1 1 2 2 2 2 2 2 2 1 1 1 1 1 1 1 1 1
0 0 0 0 0 0 0 0 0 0 0 0 0 0 0 1 1 1 1 1 1 0 0 0 1 1 1 1 2 2 2 2 2 2 2 1 1 1 1 1 1 1 1 1
0 -0 0 0 0 0 0 0 0 0 0 0 0 0 0 1 1 1 1 1 0 0 0 0 1 1 1 1 2 2 3 3 2 2 2 2 1 1 1 1 1 1 1 1
0 0 0 0 0 0 0 0 0 0 0 0 0 0 0 1 1 1 1 1 0 0 0 0 1 1 1 1 2 2 2 2 2 2 2 2 2 2 2 1 1 1 1 1
0 0 0 0 0 0 0 0 0 0 0 0 0 0 0 0 0 1 1 1 0 0 0 1 1 1 1 1 2 2 2 2 2 2 2 2 2 2 1 1 1 1 1 1
0 0 0 0 0 0 0 0 0 0 0 0 0 0 0 0 0 0 0 0 0 0 0 1 1 1 1 2 2 2 2 2 2 3 2 2 2 1 1 1 1 1 1 1
0 0 0 0 0 0 0 0 0 0 0 0 0 0 0 0 0 0 0 0 0 0 0 1 1 1 1 2 2 2 2 2 2 2 2 2 2 1 1 1 1 1 1 1
0 0 0 0 0 0 0 0 0 0 0 0 0 0 0 0 0 1 1 1 1 0 0 1 1 1 1 2 2 2 2 2 2 2 2 2 1 1 1 1 1 1 1 1
0 0 0 0 0 0 0 0 0 0 0 0 0 0 0 0 0 1 1 1 1 1 1 1 1 1 1 2 2 2 2 2 2 2 2 1 1 1 1 1 1 1 1 1
0 0 0 0 0 0 0 0 0 0 0 0 0 0 0 0 0 1 1 1 1 1 1 1 1 1 1 2 2 2 2 2 2 1 1 1 1 1 1 1 1 1 1 1
0 0 0 0 0 0 0 0 0 0 0 0 0 0 0 0 0 0 0 1 1 1 1 1 1 1 1 1 1 1 1 1 1 1 1 1 1 1 1 1 1 1 1 1
0 0 0 0 0 0 0 0 0 0 0 0 0 0 0 0 0 0 0 0 1 1 1 1 1 1 1 1 1 1 1 1 1 1 1 1 1 1 1 1 1 1 1 1
0 0 0 0 0 0 0 0 0 0 0 0 0 0 0 0 0 0 0 0 0 1 1 1 1 1 1 1 1 1 1 1 1 1 1 1 1 1 1 1 1 1 1 1
0 0 0 0 0 0 0 0 0 0 0 0 0 0 0 0 0 0 0 0 0 0 1 1 1 1 1 1 1 1 1 1 1 1 1 1 1 1 1 1 1 1 1 1
0 0 0 0 0 0 0 0 0 0 0 0 0 0 0 0 0 0 0 0 0 0 1 1 1 1 1 1 1 1 1 1 1 1 1 1 1 1 1 1 1 1 1 1
0 0 0 0 0 0 0 0 0 0 0 0 0 0 0 0 0 0 0 0 0 0 0 1 1 1 1 1 1 1 1 1 1 1 1 1 1 1 1 1 1 1 1 1
0 0 0 0 0 0 0 0 0 0 0 0 0 0 0 0 0 0 0 0 0 0 0 0 0 0 0 0 1 1 1 1 1 1 1 1 1 1 1 1 1 0 0 0
0 0 0 0 0 0 0 0 0 0 0 0 0 0 0 0 0 0 0 0 0 0 0 0 0 0 0 0 0 1 1 1 1 1 1 1 1 1 1 0 0 0 0 0
Wind_Speed
15 14 14 15 16 17 16 15 13 11 11 11 10 9 8 8 9 8 7 7 8 8 8 7 8 9 10 10 9 7 6 5 5 4 3 3 3 2 2 3 4 3 2 2
14 17 17 16 15 15 17 16 16 12 9 8 8 9 9 9 9 8 8 7 7 7 8 8 8 8 9 9 8 8 7 6 5 4 3 3 3 2 3 3 4 3 2 2
18 15 14 14 15 15 15 15 15 14 9 9 11 12 11 9 9 8 8 8 8 9 9 9 8 8 9 8 8 7 7 6 5 5 3 3 3 2 3 3 3 2 2 2
16 15 14 14 15 15 14 13 15 15 13 10 12 11 12 9 9 8 8 8 8 9 9 8 9 9 10 10 8 7 6 6 5 4 4 4 3 3 3 2 2 2 2 2
15 14 15 15 14 14 15 14 14 15 15 14 14 13 11 9 9 7 6 7 7 8 9 9 8 9 9 9 9 7 6 6 5 4 4 3 3 2 2 3 3 3 2 2
17 15 14 14 12 13 13 14 14 14 13 15 16 14 10 7 9 7 6 5 6 7 8 9 8 8 8 8 8 8 7 6 5 5 4 3 3 3 3 3 3 3 2 2
15 16 14 12 12 12 12 12 10 12 12 14 13 12 6 4 5 6 7 6 5 6 8 9 9 9 9 8 8 8 8 6 6 5 4 3 3 3 3 2 2 2 2 2
13 13 12 11 11 11 12 13 11 12 12 11 11 11 5 4 5 6 6 6 4 4 6 8 8 9 9 9 8 8 8 7 6 6 5 4 3 3 2 2 2 2 1 2
10 12 10 11 11 13 14 13 13 14 16 14 9 5 2 2 4 6 6 6 5 4 5 6 7 8 8 8 8 8 8 7 6 6 5 5 4 3 2 2 2 1 1 2
10 13 13 10 9 13 14 12 10 12 12 14 11 8 5 4 3 4 6 6 4 5 5 5 5 6 8 8 8 8 8 7 6 5 5 5 4 3 2 2 2 1 1 1
10 11 13 11 11 11 12 13 11 10 11 12 12 4 1 3 3 2 3 4 4 3 5 5 5 5 6 8 9 8 8 7 6 5 5 4 4 3 3 2 2 2 1 2
7 8 11 12 10 10 11 11 10 9 10 11 11 3 1 2 3 1 2 3 4 2 3 5 5 4 4 6 8 8 8 7 7 6 5 5 4 4 3 3 2 2 2 2
5 6 10 10 8 7 9 9 9 9 9 9 10 3 3 3 2 1 1 2 3 1 2 3 4 3 3 5 7 7 7 6 6 5 5 5 5 5 4 3 3 3 3 2
4 7 10 12 9 8 9 10 10 9 8 9 8 3 2 3 2 1 0 1 2 1 3 3 2 2 3 3 5 6 5 5 5 5 5 5 5 5 4 4 4 3 3 3
5 9 12 15 14 11 10 11 10 9 9 9 8 5 4 3 2 2 3 2 2 1 2 3 2 1 2 2 2 4 4 4 4 4 5 5 4 4 4 4 4 3 3 3
4 8 11 14 13 11 9 9 8 9 9 10 6 4 1 1 2 2 2 1 1 2 1 2 2 2 2 2 1 1 3 4 4 4 4 4 4 4 4 4 3 3 3 3
5 6 10 11 11 10 9 7 7 6 6 7 5 2 0 0 1 1 2 1 1 1 1 2 1 2 2 2 1 1 2 3 3 4 4 4 4 4 4 4 3 3 3 3
7 6 6 10 10 10 4 5 6 4 4 4 4 3 3 2 2 2 2 2 3 3 3 2 2 2 2 1 1 1 1 2 3 3 3 3 3 3 3 3 3 3 3 3
6 5 6 7 8 6 4 6 7 5 2 4 3 5 4 2 1 3 5 4 3 3 3 1 1 1 1 1 1 1 0 1 2 2 3 3 2 2 3 3 3 3 3 3
4 5 6 7 7 5 4 7 9 5 1 4 3 3 4 2 1 2 4 4 4 5 3 3 2 1 1 1 0 0 1 1 1 2 2 2 2 2 2 2 2 2 2 2
4 6 7 8 6 1 5 7 7 3 2 4 3 3 3 3 3 2 2 3 4 4 3 3 2 1 1 1 1 1 1 0 1 1 1 2 2 2 2 2 2 2 2 2
4 5 4 5 5 2 7 5 4 3 4 4 5 4 3 3 2 2 2 3 3 4 4 3 2 1 1 0 0 1 1 1 1 1 2 2 2 2 2 2 2 2 2 3
1 2 3 2 1 2 4 5 4 4 4 4 4 4 3 2 2 2 3 3 3 3 3 3 2 1 1 1 1 1 0 1 1 1 1 1 2 2 1 2 2 2 2 2
1 2 1 0 2 3 4 5 4 5 4 4 4 3 3 2 2 2 2 2 3 3 3 3 2 2 1 2 2 1 1 0 1 1 1 1 1 2 1 2 2 2 2 2
5 4 2 1 3 3 4 6 6 6 5 4 3 3 3 2 2 2 2 2 2 2 2 2 2 1 1 1 2 2 1 1 1 1 1 2 2 1 1 1 1 1 1 1
5 4 4 3 4 5 4 5 5 5 5 5 5 4 4 2 1 2 2 2 2 1 1 1 2 1 1 1 1 1 1 1 1 1 1 2 1 1 1 1 0 1 1 2
Wind_Direction
225 230 235 237 237 250 266 272 267 250 240 240 236 233 218 219 206 191 178 179 176 169 156 148 146 144 137 137 141 145 144 138 142 149 159 150 137 133 122 112 108 106 92 78
237 235 242 249 253 250 259 267 273 265 243 248 250 243 227 220 216 194 184 182 173 166 157 147 147 146 142 140 144 149 149 151 156 149 152 151 146 144 129 121 121 118 108 97
242 245 247 252 259 261 255 257 263 267 260 253 254 246 239 213 224 197 188 189 179 170 158 156 156 152 145 145 149 154 154 155 163 152 150 149 142 142 128 123 122 126 124 117
247 250 252 249 252 260 264 261 267 272 267 253 248 253 236 212 209 196 193 189 180 167 157 161 162 158 154 153 153 147 145 147 151 152 162 164 157 152 134 133 128 139 132 126
252 248 250 252 250 256 268 274 269 269 267 267 250 250 245 209 202 190 194 182 169 162 161 162 163 161 156 152 153 152 149 153 155 160 159 165 150 148 134 135 142 154 152 156
257 256 254 254 257 260 269 275 271 264 259 255 251 252 252 218 200 184 191 185 165 161 158 159 159 149 148 147 149 149 146 149 155 158 152 154 154 152 147 151 150 162 156 160
256 254 253 251 254 254 255 258 258 250 243 249 244 244 244 213 196 179 185 175 157 155 151 155 158 155 151 149 147 146 146 149 156 163 161 168 163 159 155 164 163 168 160 155
260 254 244 242 249 256 253 250 254 263 265 263 249 240 212 187 166 168 164 146 145 150 148 160 160 157 151 149 147 147 151 156 165 169 167 168 163 174 169 164 162 175 158 149
275 273 261 248 248 250 254 254 261 270 274 274 271 268 209 138 138 143 145 148 160 161 152 151 150 152 149 150 150 150 152 163 172 174 169 166 168 188 174 168 164 155 148 154
281 285 276 264 248 244 250 254 256 262 271 272 264 249 235 190 162 168 159 157 159 149 146 139 140 142 150 154 154 153 157 165 170 167 168 167 174 186 169 174 166 168 164 145
283 280 277 269 250 252 251 250 253 262 264 269 270 263 200 157 148 161 159 144 126 157 153 144 141 143 151 157 156 156 158 162 162 162 164 166 175 183 180 177 175 183 177 173
287 281 279 270 269 267 260 255 251 256 265 272 276 263 116 126 117 109 120 133 127 149 148 146 140 141 152 161 157 155 162 167 167 169 172 169 168 171 179 183 188 192 196 197
307 279 272 262 250 257 264 263 266 265 266 266 267 247 145 118 100 55 126 117 103 108 114 126 133 145 154 157 154 157 164 169 172 172 171 167 170 174 182 190 194 193 202 217
271 264 266 270 283 289 275 276 275 269 263 262 263 249 195 157 144 133 12 38 94 86 108 99 112 145 137 145 151 159 167 168 167 165 169 169 179 182 185 192 196 194 199 216
265 267 271 277 277 274 275 268 259 259 268 267 268 248 208 179 162 171 189 189 163 145 93 99 104 110 114 122 145 159 164 158 160 170 172 172 179 182 185 193 202 196 197 216
256 273 279 275 273 273 274 268 260 258 261 262 268 273 236 181 161 146 134 159 201 166 156 100 106 134 119 116 127 164 153 154 158 172 179 176 180 188 189 193 197 193 200 213
268 272 279 273 272 276 270 279 266 266 277 279 278 278 82 332 75 112 101 61 9 35 51 61 41 76 77 81 90 103 145 150 163 174 183 181 180 189 186 191 192 199 201 212
271 270 267 271 271 253 268 326 329 313 341 8 17 360 1 35 45 44 67 49 20 20 17 47 62 31 34 59 93 97 167 158 172 177 185 184 186 188 179 184 192 194 197 210
244 261 271 271 267 252 276 340 338 313 337 19 13 348 353 47 72 69 48 35 10 5 360 24 103 54 52 39 38 47 216 161 175 191 188 190 189 192 191 190 197 202 202 211
222 228 256 265 269 271 338 350 332 305 251 10 13 341 342 352 295 67 29 16 9 360 360 4 6 21 64 39 38 296 233 182 188 210 209 194 190 204 203 200 216 222 218 216
251 238 247 265 266 260 355 347 329 289 339 335 341 345 344 357 2 19 6 8 360 358 0 357 3 24 37 37 8 312 282 218 218 233 217 198 194 212 203 207 213 221 223 226
305 294 289 291 287 313 359 354 12 8 339 337 348 357 357 19 29 29 10 7 1 359 348 345 348 1 340 282 324 313 297 315 307 248 235 215 207 227 220 209 228 226 228 235
289 324 323 356 355 24 12 28 16 343 335 342 338 344 352 15 23 18 8 1 350 349 344 334 334 342 334 339 316 269 265 311 303 277 264 249 235 225 215 232 235 224 223 235
12 319 315 358 70 31 8 16 3 349 339 333 334 335 336 346 354 2 15 2 345 345 340 335 340 354 6 1 358 18 31 336 310 318 311 280 247 225 203 234 235 226 227 234
343 337 343 333 352 355 2 354 347 343 342 346 353 352 350 355 338 345 348 338 324 332 324 315 313 329 344 9 17 25 44 39 12 333 309 282 262 244 224 242 254 235 224 225
358 351 339 340 348 334 332 329 327 337 344 350 354 357 349 350 336 329 321 329 330 336 318 320 331 335 352 10 14 30 46 51 358 292 277 274 261 244 237 231 302 28 154 153